Time,TemperatureF,DewpointF,PressureIn,WindDirection,WindDirectionDegrees,WindSpeedMPH,WindSpeedGustMPH,Humidity,HourlyPrecipIn,Conditions,Clouds,dailyrainin,SoftwareType,DateUTC
2013-04-24 06:58:00,46.5,44.3,29.92,WSW,252,4.0,4.0,92,0.47,,,0.36,Wunderground v.1.15,2013-04-24 11:58:00,
2013-04-24 06:59:00,46.4,44.5,29.93,SW,226,4.0,7.0,93,0.32,,,0.36,Wunderground v.1.15,2013-04-24 11:59:00,
2013-04-24 07:01:00,46.4,44.5,29.93,WSW,253,4.0,4.0,93,0.18,,,0.36,Wunderground v.1.15,2013-04-24 12:01:00,
2013-04-24 07:02:00,46.4,44.5,29.94,SSW,202,4.0,7.0,93,0.13,,,0.36,Wunderground v.1.15,2013-04-24 12:02:00,
2013-04-24 07:04:00,46.3,44.4,29.96,WSW,244,6.0,11.0,93,0.12,,,0.37,Wunderground v.1.15,2013-04-24 12:04:00,
2013-04-24 07:09:00,46.2,44.3,29.97,SSE,153,8.0,11.0,93,0.09,,,0.38,Wunderground v.1.15,2013-04-24 12:09:00,
2013-04-24 07:14:00,45.8,43.6,29.99,SW,220,10.0,10.0,92,0.37,,,0.41,Wunderground v.1.15,2013-04-24 12:14:00,
2013-04-24 07:20:00,45.4,43.2,29.98,WSW,246,10.0,10.0,92,0.11,,,0.42,Wunderground v.1.15,2013-04-24 12:20:00,
2013-04-24 07:26:00,45.3,43.1,29.98,SE,136,7.0,9.0,92,0.05,,,0.42,Wunderground v.1.15,2013-04-24 12:26:00,
2013-04-24 07:32:00,45.3,43.1,29.99,NE,36,6.0,9.0,92,0.00,,,0.42,Wunderground v.1.15,2013-04-24 12:32:00,
2013-04-24 07:38:00,45.2,43.0,30.00,SW,232,4.0,9.0,92,0.26,,,0.44,Wunderground v.1.15,2013-04-24 12:38:00,
2013-04-24 07:43:00,45.1,42.9,29.97,ENE,75,4.0,4.0,92,0.67,,,0.49,Wunderground v.1.15,2013-04-24 12:43:00,
2013-04-24 07:49:00,45.0,43.1,29.94,NE,39,3.0,5.0,93,0.21,,,0.53,Wunderground v.1.15,2013-04-24 12:49:00,
2013-04-24 07:55:00,44.9,43.0,29.94,SE,130,3.0,6.0,93,0.15,,,0.54,Wunderground v.1.15,2013-04-24 12:55:00,
2013-04-24 08:00:00,44.7,42.5,29.95,East,82,3.0,3.0,92,0.06,,,0.54,Wunderground v.1.15,2013-04-24 13:00:00,
2013-04-24 08:06:00,44.6,42.4,29.96,WSW,246,2.0,4.0,92,0.04,,,0.54,Wunderground v.1.15,2013-04-24 13:06:00,
2013-04-24 08:11:00,44.6,42.4,29.95,WNW,283,2.0,2.0,92,0.00,,,0.54,Wunderground v.1.15,2013-04-24 13:11:00,
2013-04-24 08:16:00,44.4,42.2,29.96,SW,225,2.0,4.0,92,0.00,,,0.54,Wunderground v.1.15,2013-04-24 13:16:00,
2013-04-24 08:21:00,44.3,42.1,29.96,SW,227,3.0,4.0,92,0.00,,,0.54,Wunderground v.1.15,2013-04-24 13:21:00,
2013-04-24 08:27:00,44.3,42.1,29.96,WSW,252,3.0,4.0,92,0.15,,,0.56,Wunderground v.1.15,2013-04-24 13:27:00,
2013-04-24 08:33:00,44.4,42.2,29.96,WSW,246,2.0,6.0,92,0.10,,,0.57,Wunderground v.1.15,2013-04-24 13:33:00,
2013-04-24 08:39:00,44.5,42.3,29.97,WSW,237,4.0,8.0,92,0.09,,,0.57,Wunderground v.1.15,2013-04-24 13:39:00,
2013-04-24 08:44:00,44.6,42.4,29.97,SSW,202,5.0,5.0,92,0.05,,,0.57,Wunderground v.1.15,2013-04-24 13:44:00,
2013-04-24 08:50:00,44.5,42.3,29.99,West,273,5.0,5.0,92,0.00,,,0.57,Wunderground v.1.15,2013-04-24 13:50:00,
2013-04-24 08:55:00,44.4,42.2,30.05,WSW,245,6.0,10.0,92,0.00,,,0.57,Wunderground v.1.15,2013-04-24 13:55:00,
2013-04-24 09:02:00,44.2,41.7,30.03,South,186,8.0,8.0,91,0.00,,,0.57,Wunderground v.1.15,2013-04-24 14:02:00,
2013-04-24 09:08:00,44.0,41.5,30.00,SSW,193,7.0,8.0,91,0.00,,,0.57,Wunderground v.1.15,2013-04-24 14:08:00,
2013-04-24 09:14:00,43.8,41.3,30.04,SSW,211,7.0,10.0,91,0.00,,,0.57,Wunderground v.1.15,2013-04-24 14:14:00,
2013-04-24 09:19:00,43.8,41.3,30.06,East,101,7.0,10.0,91,0.00,,,0.57,Wunderground v.1.15,2013-04-24 14:19:00,
2013-04-24 09:25:00,43.7,41.0,30.04,SSW,213,5.0,6.0,90,0.00,,,0.57,Wunderground v.1.15,2013-04-24 14:25:00,
2013-04-24 09:31:00,43.6,40.9,30.05,SW,220,3.0,6.0,90,0.00,,,0.57,Wunderground v.1.15,2013-04-24 14:31:00,
2013-04-24 09:36:00,43.6,40.9,30.08,SW,232,5.0,7.0,90,0.00,,,0.57,Wunderground v.1.15,2013-04-24 14:36:00,
2013-04-24 09:41:00,43.5,41.0,30.12,WSW,244,5.0,7.0,91,0.00,,,0.57,Wunderground v.1.15,2013-04-24 14:41:00,
2013-04-24 09:46:00,43.4,41.2,30.13,WNW,284,5.0,6.0,92,0.00,,,0.57,Wunderground v.1.15,2013-04-24 14:46:00,
2013-04-24 09:51:00,43.3,40.8,30.12,WSW,256,7.0,13.0,91,0.00,,,0.57,Wunderground v.1.15,2013-04-24 14:51:00,
2013-04-24 09:56:00,43.3,40.6,30.12,WSW,253,8.0,9.0,90,0.00,,,0.57,Wunderground v.1.15,2013-04-24 14:56:00,
2013-04-24 10:02:00,43.2,40.2,30.12,WNW,286,8.0,8.0,89,0.00,,,0.57,Wunderground v.1.15,2013-04-24 15:02:00,
2013-04-24 10:10:00,43.3,40.6,30.12,SW,236,7.0,7.0,90,0.00,,,0.57,Wunderground v.1.15,2013-04-24 15:10:00,
2013-04-24 10:15:00,43.3,40.6,30.12,SW,227,6.0,7.0,90,0.00,,,0.57,Wunderground v.1.15,2013-04-24 15:15:00,
2013-04-24 10:21:00,43.4,40.9,30.12,WSW,244,4.0,5.0,91,0.00,,,0.57,Wunderground v.1.15,2013-04-24 15:21:00,
2013-04-24 10:28:00,43.5,41.3,30.12,SW,217,5.0,7.0,92,0.00,,,0.57,Wunderground v.1.15,2013-04-24 15:28:00,
2013-04-24 10:34:00,43.6,41.4,30.12,SW,236,5.0,6.0,92,0.00,,,0.57,Wunderground v.1.15,2013-04-24 15:34:00,
2013-04-24 10:40:00,44.1,41.4,30.13,South,186,5.0,5.0,90,0.00,,,0.57,Wunderground v.1.15,2013-04-24 15:40:00,
2013-04-24 10:45:00,44.3,41.3,30.14,ENE,64,5.0,6.0,89,0.00,,,0.57,Wunderground v.1.15,2013-04-24 15:45:00,
2013-04-24 10:50:00,44.5,40.9,30.14,WSW,248,4.0,4.0,87,0.00,,,0.57,Wunderground v.1.15,2013-04-24 15:50:00,
2013-04-24 10:56:00,44.5,40.9,30.15,SW,231,6.0,9.0,87,0.00,,,0.57,Wunderground v.1.15,2013-04-24 15:56:00,
2013-04-24 11:02:00,44.4,40.8,30.15,SSW,207,6.0,7.0,87,0.00,,,0.57,Wunderground v.1.15,2013-04-24 16:02:00,
2013-04-24 11:07:00,44.6,41.3,30.14,WSW,254,5.0,7.0,88,0.00,,,0.57,Wunderground v.1.15,2013-04-24 16:07:00,
2013-04-24 11:12:00,45.4,41.8,30.14,SW,225,4.0,4.0,87,0.00,,,0.57,Wunderground v.1.15,2013-04-24 16:12:00,
2013-04-24 11:18:00,46.0,41.7,30.14,WSW,249,4.0,8.0,85,0.00,,,0.57,Wunderground v.1.15,2013-04-24 16:18:00,
2013-04-24 11:23:00,46.4,41.5,30.14,SW,225,5.0,9.0,83,0.00,,,0.57,Wunderground v.1.15,2013-04-24 16:23:00,
2013-04-24 11:28:00,46.4,41.8,30.15,SW,223,5.0,9.0,84,0.00,,,0.57,Wunderground v.1.15,2013-04-24 16:28:00,
2013-04-24 11:33:00,46.0,41.1,30.15,SW,218,5.0,8.0,83,0.00,,,0.57,Wunderground v.1.15,2013-04-24 16:33:00,
2013-04-24 11:38:00,45.9,41.0,30.15,WSW,246,6.0,8.0,83,0.00,,,0.57,Wunderground v.1.15,2013-04-24 16:38:00,
2013-04-24 11:44:00,46.0,41.4,30.16,South,186,6.0,9.0,84,0.00,,,0.57,Wunderground v.1.15,2013-04-24 16:44:00,
2013-04-24 11:50:00,45.7,41.1,30.16,South,175,7.0,7.0,84,0.00,,,0.57,Wunderground v.1.15,2013-04-24 16:50:00,
2013-04-24 11:56:00,45.4,41.2,30.17,SW,221,6.0,8.0,85,0.00,,,0.57,Wunderground v.1.15,2013-04-24 16:56:00,
2013-04-24 12:01:00,45.7,41.4,30.17,West,263,6.0,6.0,85,0.00,,,0.57,Wunderground v.1.15,2013-04-24 17:01:00,
2013-04-24 12:06:00,45.5,41.3,30.17,SSW,211,6.0,9.0,85,0.00,,,0.57,Wunderground v.1.15,2013-04-24 17:06:00,
2013-04-24 12:11:00,45.2,40.7,30.17,SW,216,7.0,8.0,84,0.00,,,0.57,Wunderground v.1.15,2013-04-24 17:11:00,
2013-04-24 12:16:00,45.9,41.3,30.17,WSW,250,6.0,10.0,84,0.00,,,0.57,Wunderground v.1.15,2013-04-24 17:16:00,
2013-04-24 12:21:00,46.0,40.8,30.17,SSW,198,6.0,7.0,82,0.00,,,0.57,Wunderground v.1.15,2013-04-24 17:21:00,
2013-04-24 12:26:00,45.6,40.7,30.17,South,190,5.0,7.0,83,0.00,,,0.57,Wunderground v.1.15,2013-04-24 17:26:00,
2013-04-24 12:32:00,45.4,40.5,30.17,WSW,244,5.0,9.0,83,0.00,,,0.57,Wunderground v.1.15,2013-04-24 17:32:00,
2013-04-24 12:37:00,45.5,40.9,30.18,ENE,65,5.0,9.0,84,0.00,,,0.57,Wunderground v.1.15,2013-04-24 17:37:00,
2013-04-24 12:42:00,45.6,40.7,30.17,NE,36,4.0,5.0,83,0.00,,,0.57,Wunderground v.1.15,2013-04-24 17:42:00,
2013-04-24 12:47:00,45.2,40.3,30.18,South,170,4.0,5.0,83,0.00,,,0.57,Wunderground v.1.15,2013-04-24 17:47:00,
2013-04-24 12:53:00,45.2,41.0,30.18,SSW,209,3.0,6.0,85,0.00,,,0.57,Wunderground v.1.15,2013-04-24 17:53:00,
2013-04-24 13:02:00,44.7,41.1,30.18,SSW,212,4.0,4.0,87,0.00,,,0.57,Wunderground v.1.15,2013-04-24 18:02:00,
2013-04-24 13:08:00,44.6,40.7,30.18,SW,230,5.0,7.0,86,0.00,,,0.57,Wunderground v.1.15,2013-04-24 18:08:00,
2013-04-24 13:14:00,44.4,41.1,30.18,SW,224,5.0,7.0,88,0.00,,,0.57,Wunderground v.1.15,2013-04-24 18:14:00,
2013-04-24 13:20:00,44.2,41.2,30.18,SW,214,5.0,7.0,89,0.00,,,0.57,Wunderground v.1.15,2013-04-24 18:20:00,
2013-04-24 13:25:00,44.1,41.4,30.18,WSW,240,5.0,7.0,90,0.00,,,0.57,Wunderground v.1.15,2013-04-24 18:25:00,
2013-04-24 13:31:00,44.2,41.5,30.18,South,190,5.0,7.0,90,0.00,,,0.57,Wunderground v.1.15,2013-04-24 18:31:00,
2013-04-24 13:36:00,44.3,41.6,30.18,SW,222,5.0,7.0,90,0.00,,,0.57,Wunderground v.1.15,2013-04-24 18:36:00,
2013-04-24 13:42:00,44.4,41.4,30.19,SW,223,5.0,6.0,89,0.00,,,0.57,Wunderground v.1.15,2013-04-24 18:42:00,
2013-04-24 13:48:00,44.6,41.3,30.19,WSW,237,5.0,8.0,88,0.00,,,0.57,Wunderground v.1.15,2013-04-24 18:48:00,
2013-04-24 13:54:00,45.0,41.4,30.19,SW,224,5.0,6.0,87,0.00,,,0.57,Wunderground v.1.15,2013-04-24 18:54:00,
2013-04-24 13:59:00,45.2,41.6,30.19,SW,216,5.0,6.0,87,0.00,,,0.57,Wunderground v.1.15,2013-04-24 18:59:00,
2013-04-24 14:04:00,45.8,42.2,30.19,WSW,238,5.0,7.0,87,0.00,,,0.57,Wunderground v.1.15,2013-04-24 19:04:00,
2013-04-24 14:09:00,46.9,42.6,30.19,SW,236,4.0,7.0,85,0.00,,,0.57,Wunderground v.1.15,2013-04-24 19:09:00,
2013-04-24 14:14:00,47.5,42.6,30.19,SW,225,3.0,4.0,83,0.00,,,0.57,Wunderground v.1.15,2013-04-24 19:14:00,
2013-04-24 14:20:00,47.5,42.0,30.20,SW,232,3.0,3.0,81,0.00,,,0.57,Wunderground v.1.15,2013-04-24 19:20:00,
2013-04-24 14:25:00,47.3,41.4,30.20,SW,224,5.0,5.0,80,0.00,,,0.57,Wunderground v.1.15,2013-04-24 19:25:00,
2013-04-24 14:31:00,47.1,41.2,30.20,SSW,203,5.0,6.0,80,0.00,,,0.57,Wunderground v.1.15,2013-04-24 19:31:00,
2013-04-24 14:37:00,46.9,41.4,30.20,SSW,212,5.0,6.0,81,0.00,,,0.57,Wunderground v.1.15,2013-04-24 19:37:00,
2013-04-24 14:42:00,47.1,41.6,30.20,SSW,205,5.0,7.0,81,0.00,,,0.57,Wunderground v.1.15,2013-04-24 19:42:00,
2013-04-24 14:47:00,46.7,41.5,30.20,ENE,63,4.0,7.0,82,0.00,,,0.57,Wunderground v.1.15,2013-04-24 19:47:00,
2013-04-24 15:51:00,48.1,40.5,30.21,SW,227,4.0,7.0,75,0.00,,,0.57,Wunderground v.1.15,2013-04-24 20:51:00,
2013-04-24 15:56:00,48.0,41.1,30.21,WSW,238,3.0,7.0,77,0.00,,,0.57,Wunderground v.1.15,2013-04-24 20:56:00,
2013-04-24 16:01:00,48.6,41.0,30.21,SW,236,3.0,3.0,75,0.00,,,0.57,Wunderground v.1.15,2013-04-24 21:01:00,
2013-04-24 16:06:00,48.7,41.5,30.21,West,265,3.0,5.0,76,0.00,,,0.57,Wunderground v.1.15,2013-04-24 21:06:00,
2013-04-24 16:11:00,48.8,40.9,30.21,SW,219,3.0,6.0,74,0.00,,,0.57,Wunderground v.1.15,2013-04-24 21:11:00,
2013-04-24 16:17:00,49.0,41.8,30.21,SW,235,4.0,6.0,76,0.00,,,0.57,Wunderground v.1.15,2013-04-24 21:17:00,
2013-04-24 16:23:00,49.0,41.1,30.21,SW,217,4.0,5.0,74,0.00,,,0.57,Wunderground v.1.15,2013-04-24 21:23:00,
2013-04-24 16:28:00,49.0,40.7,30.22,SSW,192,5.0,7.0,73,0.00,,,0.57,Wunderground v.1.15,2013-04-24 21:28:00,
2013-04-24 16:33:00,49.0,40.7,30.22,SSE,161,5.0,5.0,73,0.00,,,0.57,Wunderground v.1.15,2013-04-24 21:33:00,
2013-04-24 16:38:00,48.8,40.5,30.22,WSW,241,5.0,6.0,73,0.00,,,0.57,Wunderground v.1.15,2013-04-24 21:38:00,
2013-04-24 16:44:00,48.6,40.7,30.23,SSW,210,5.0,6.0,74,0.00,,,0.57,Wunderground v.1.15,2013-04-24 21:44:00,
2013-04-24 16:49:00,48.3,41.4,30.23,SSW,194,5.0,7.0,77,0.00,,,0.57,Wunderground v.1.15,2013-04-24 21:49:00,
2013-04-24 16:54:00,48.4,41.5,30.23,SW,217,4.0,5.0,77,0.00,,,0.57,Wunderground v.1.15,2013-04-24 21:54:00,
2013-04-24 16:59:00,48.5,40.9,30.23,SSW,207,4.0,5.0,75,0.00,,,0.57,Wunderground v.1.15,2013-04-24 21:59:00,
2013-04-24 17:05:00,48.5,40.6,30.23,SW,223,4.0,6.0,74,0.00,,,0.57,Wunderground v.1.15,2013-04-24 22:05:00,
2013-04-24 17:10:00,48.4,40.8,30.23,SW,214,4.0,4.0,75,0.00,,,0.57,Wunderground v.1.15,2013-04-24 22:10:00,
2013-04-24 17:16:00,48.2,41.3,30.23,NE,47,4.0,4.0,77,0.00,,,0.57,Wunderground v.1.15,2013-04-24 22:16:00,
2013-04-24 17:22:00,48.2,41.0,30.24,SSW,208,3.0,4.0,76,0.00,,,0.57,Wunderground v.1.15,2013-04-24 22:22:00,
2013-04-24 17:27:00,48.2,41.3,30.24,SW,225,2.0,4.0,77,0.00,,,0.57,Wunderground v.1.15,2013-04-24 22:27:00,
2013-04-24 17:32:00,48.1,40.9,30.24,WSW,252,2.0,4.0,76,0.00,,,0.57,Wunderground v.1.15,2013-04-24 22:32:00,
2013-04-24 17:37:00,48.1,40.5,30.24,SSE,159,3.0,5.0,75,0.00,,,0.57,Wunderground v.1.15,2013-04-24 22:37:00,
2013-04-24 17:42:00,48.1,40.9,30.24,NNE,31,2.0,3.0,76,0.00,,,0.57,Wunderground v.1.15,2013-04-24 22:42:00,
2013-04-24 17:47:00,48.0,40.8,30.24,WSW,242,2.0,3.0,76,0.00,,,0.57,Wunderground v.1.15,2013-04-24 22:47:00,
2013-04-24 17:53:00,47.9,40.7,30.24,West,269,2.0,2.0,76,0.00,,,0.57,Wunderground v.1.15,2013-04-24 22:53:00,